YAOGAN-30 W

导读

YAOGAN-30 W(遥感三十号08组卫星)是中国于北京时间2020年10月26日08时成功发射的遥感卫星,由长征系列运载火箭送入预定轨道,发射任务取得圆满成功。该卫星主要用于开展电磁环境探测及相关技术试验,可服务于资源勘探、农业估产、防灾减灾等民用领域,同时也具备空间态势感知能力,是中国遥感卫星星座建设的重要组成部分,进一步提升了中国对地观测体系的覆盖能力与技术水平。

基本信息
目录编号:
46809
目录名称:
YAOGAN-30 W
国际标识:
2020-076C
轨道中心:
EARTH
卫星名称:
YAOGAN-30 W
卫星全名:
--
卫星状态:
在轨 (已飞行2140 天)
发射日期:
2020-10-26 UTC
国别 :
中国 (CN)
星等 :
--
轨道信息
数据来源 国际轨道数据 AOE轨道数据
星历时间 2026-09-05T06:08:28+0800
7小时前
查看轨道信息
2026-08-30T01:00:00+0800
6天前
查看轨道信息
半长轴 6935.774km 6935.87km
偏心率 0.0005966 0.0006834
轨道倾角 34.997° 35.000°
近地点辐角 40.719° 347.594°
升交点赤经 324.779° 2.671°
平近点角 319.396° 174.263°
近地点 553.499km 552.993km
远地点 561.775km 562.473km
周期 95.808分钟 95.810分钟
每日圈数 15.030051 15.029739
详细信息
使用方式:
暂无
2D轨道图
3D轨道图
轨道高度分析图
轨道倾角分析图
轨道综合分析图
查看轨道综合分析图
交会数据列表
事件ID 空间交会对象 最接近时刻(TCA) 交会距离 交会风险概率(CRP) 交会风险指数(CRI) 操作
CDM_260830-155604-680906-435421
2026-08-30T
15:56:24+0000
1.358 km
极远距离
5.049786E-6 低风险 0.49
CDM_260830-062604-680906-869225
OBJECT B (68692)
2026-08-30T
06:26:14+0000
2.666 km
极远距离
1.169791E-6 低风险 0.36